Regional Weather Roundup
Issued by NWS Grand Forks, ND

Home | Current Version | Previous Version | Text Only | Print | Product List | Glossary Off
Versions: 1 2 3 4 5 6 7 8 9 10 11 12 13 14 15 16 17 18 19 20 21 22 23 24 25 26 27 28 29 30 31 32 33 34 35 36 37 38 39 40 41 42 43 44 45 46 47 48 49 50

485
ASUS43 KFGF 231710
RWRFGF
PRAIRIE TO PINES  WEATHER ROUNDUP
NATIONAL WEATHER SERVICE EASTERN NORTH DAKOTA/GRAND FORKS ND
1100 AM CST THU FEB 23 2017

 **SATELLITE DATA USED TO AUGMENT SKY COVER AT AUTOMATED STATIONS**
 *****  WEATHER ACROSS EASTERN NORTH DAKOTA  *****

CITY           SKY/WX    TMP DP  RH WIND       PRES   REMARKS
GRAND FORKS    CLOUDY    28  18  66 NE14      30.07R WCI  17
GRAND FRKS AFB CLOUDY    27  22  82 N12       30.08R WCI  17
DEVILS LAKE    CLOUDY    26  23  88 NE13      30.06R WCI  15
FARGO          CLOUDY    30  22  72 N15G24    30.05R WCI  19
WAHPETON ARPT  CLOUDY    30  21  69 N15G24    30.02R WCI  19
$$

 ***** WEATHER ACROSS CENTRAL AND WESTERN NORTH DAKOTA  *****

CITY           SKY/WX    TMP DP  RH WIND       PRES   REMARKS
BISMARCK       PTSUNNY   31  24  75 E8        30.03S WCI  23
MINOT          CLOUDY    23  17  78 N13       30.09R WCI  11
JAMESTOWN      CLOUDY    30  23  75 NE7       30.01S WCI  23
MINOT AFB      CLOUDY    21  16  79 NE9       30.09R WCI  11
GARRISON         N/A     23  19  85 NE14G26   30.04R WCI  11
WILLISTON      CLOUDY    26  23  88 N14       30.08R WCI  14
DICKINSON      LGT SNOW  28  26  92 NE8       29.96F FOG     WCI  20
HETTINGER      CLOUDY    30  25  81 NE13      29.96F HAZE    WCI  20
$$

 *****  OTHER AIRPORT OBSERVATIONS IN OUR AREA  *****

CITY           SKY/WX    TMP DP  RH WIND       PRES   REMARKS
WALHALLA       NOT AVBL
GRAFTON AIRPOR CLOUDY    25  19  80 N14       30.11R WCI  13
VALLEY CITY AR CLOUDY    28  28 100 NE10      30.04F WCI  19
CANDO          NOT AVBL
CAVALIER APRT    N/A     23  18  80 NE13      30.10R WCI  11
GWINNER        CLOUDY    30  27  86 N18       30.03R WCI  18
SHEYENNE NWR     N/A     29  21  71 NE14      29.95  WCI  18
ROLLA          CLOUDY    19  18  93 N16       30.06R WCI   5
 ***** THE ABOVE OBSERVATIONS ARE NON NWS ARE NOT QUALITY
       CONTROLLED AND MAY MIS-REPORT RAIN FOR SNOW...
$$

  *****  WEATHER ACROSS NORTHERN MINNESOTA  *****

CITY           SKY/WX    TMP DP  RH WIND       PRES   REMARKS
FLAG ISLAND    PTSUNNY   19  10  68 NW21      30.04S WCI   3
WARROAD        CLOUDY    23  14  68 NW10      30.05F WCI  12
ROSEAU         CLOUDY    23  16  74 N14       30.04F WCI  11
HALLOCK        CLOUDY    25  18  74 N18       30.07R WCI  11
THF RVR FALLS    N/A    N/A N/A N/A MISG        N/A
BAUDETTE       FLURRIES  20  11  68 NW13      30.03S WCI   7
WASKISH        CLOUDY    25  16  68 NW8       30.03S WCI  16
CROOKSTON      CLOUDY    28  21  74 NE13      30.07S WCI  18
GREENBUSH NDAW   N/A     23  18  80 N12         N/A  WCI  12
$$
  *****  WEATHER ACROSS CENTRAL AND WEST MINNESOTA  *****

CITY           SKY/WX    TMP DP  RH WIND       PRES   REMARKS
FOSSTON        CLOUDY    25  19  80 N15G23    30.03S WCI  12
BEMIDJI        PTSUNNY   25  17  72 N12G17    30.00S WCI  14
PARK RAPIDS    CLOUDY    25  16  68 N16       29.98R WCI  12
ELBOW LAKE     CLOUDY    28  22  79 E12       29.99R WCI  17
WADENA         CLOUDY    25  21  86 N10       29.97S WCI  15
DETROIT LAKES  CLOUDY    28  21  74 NE13      30.00S WCI  18
MOORHEAD       CLOUDY    28  21  74 N18G24    30.05R WCI  16
FERGUS FALLS   FAIR      28  21  74 N10       30.04R WCI  19
MORRIS MN      FAIR      30  25  80 N14       29.96S WCI  20
STAPLES        CLOUDY    25  19  80 N12       29.97S WCI  14
$$
  *****  WEATHER ELSEWHERE ACROSS MINNESOTA  *****

CITY           SKY/WX    TMP DP  RH WIND       PRES   REMARKS
DULUTH         CLOUDY    25  21  85 NW10      29.93R WCI  15
INTRNTL FALLS  CLOUDY    23  11  60 W14G21    30.00S WCI  11
ELY            FAIR      28  18  64 NW10G16   29.92R WCI  19
CLOQUET        CLOUDY    25  21  86 NW12      29.95R WCI  14
WHEATON        CLOUDY    28  21  74 N16       30.02S WCI  17
BRAINERD       CLOUDY    25  20  81 N13       29.98S WCI  14
HIBBING        PTSUNNY   24  20  84 N17       29.94F WCI  11
ALEXANDRIA     CLOUDY    26  22  84 NE9       29.96R WCI  17
SAINT CLOUD    CLOUDY    27  22  81 N9        29.96S WCI  18
MINNEAPOLIS    PTSUNNY   35  24  64 N9G24     29.93S
$$

  *****  WEATHER ACROSS SOUTH DAKOTA  *****

CITY           SKY/WX    TMP DP  RH WIND       PRES   REMARKS
SIOUX FALLS    CLOUDY    32  26  78 NE18      29.88S WCI  20
BROOKINGS      CLOUDY    29  24  82 NE18G24   29.89R WCI  16
WATERTOWN      CLOUDY    29  23  78 NE21      29.91F WCI  16
HURON          CLOUDY    32  24  72 NE15      29.93F WCI  22
SISSETON         N/A     30  24  78 NE20G26   30.00R WCI  17
ABERDEEN       PTSUNNY   30  22  72 NE16      29.99F WCI  19
MITCHELL       CLOUDY    33  25  72 NE14      29.93R WCI  23
PIERRE         FAIR      32  23  69 NE15      29.93R WCI  22
MOBRIDGE       CLOUDY    32  23  69 NE15      29.95F WCI  22
RAPID CITY     LGT SNOW  25  22  88 NE9       29.89R VSB 3/4 WCI  15
$$

  *****  SOME WEATHER IN NEARBY STATES *****

CITY           SKY/WX    TMP DP  RH WIND       PRES   REMARKS
GLASGOW MT     FAIR      29  24  82 NE16      30.04R WCI  17
GREAT FALLS MT CLOUDY    25  22  88 NE12      29.98R WCI  14
CHEYENNE WY    SNOW      24  22  91 NE13G21   29.57R VSB 1/2 WCI  12
SCOTTSBLUFF NE HVY SNOW  26  22  84 NE18      29.70R VSB 1/4 WCI  13
OMAHA NE       CLOUDY    40  33  76 NE16G22   29.72F
DES MOINES IA  CLOUDY    43  36  76 E14       29.79F
DAVENPORT IA   FAIR      46  39  76 E12       29.80S
CHICAGO IL     CLOUDY    45  37  73 NE12      29.84R
EAU CLAIRE WI  CLOUDY    38  29  70 N8        29.90S
LA CROSSE WI   CLOUDY    42  32  67 N10       29.87F
$$

  *****  SOME NATIONAL WEATHER *****

CITY           SKY/WX    TMP DP  RH WIND       PRES   REMARKS
LA GUARDIA NY  CLOUDY    56  49  77 SW12      29.88F
RALEIGH NC     FAIR      72  52  49 CALM      29.94F
ATLANTA GA     FAIR      69  57  65 SE8       29.90F
NEW ORLEANS LA FAIR      73  61  65 S6        29.85F
OKLAHOMA CITY  FAIR      72  43  35 S14       29.52F
ALBUQUERQUE NM FAIR      51  16  24 W29G39    29.73R
SALT LAKE CITY FLURRIES  30  25  81 W16       29.77R WCI  19
LOS ANGELES CA FAIR      54  28  36 N15G22    30.10S
BOISE ID       CLOUDY    31  25  78 NW23G29   29.88R WCI  18
SEATTLE WA     CLOUDY    38  35  89 NE6       30.26R
$$

*** WEATHER ACROSS MANITOBA...SASKATCHEWAN AND ONTARIO ***
                ***ONTARIO***

CITY           SKY/WX    TMP DP  RH WIND       PRES   REMARKS
GERALDTON      FLURRIES  18   9  68 NW12G18   29.84R WCI   5
THUNDER BAY    MOSUNNY   30  16  55 W15G23    29.89R WCI  19
SIOUX LOOKOUT  FLURRIES  18   9  68 NW14      29.92S WCI   4
TORONTO        PTSUNNY   63  52  67 SW18G25   29.63R
BIG TROUT LK   LGT SNOW   0  -8  71 N9        29.92R WCI -16
PICKLE LAKE    LGT SNOW   5  -4  66 W13G21    29.89R DRFTSNOWWCI -12
DRYDEN         SUNNY     19   7  58 NW12G18   29.94F WCI   7
KENORA         MOSUNNY   19   7  58 NW13G25   30.00S WCI   7
$$
                *** MANITOBA***

CITY           SKY/WX    TMP DP  RH WIND       PRES   REMARKS
BRANDON        MOSUNNY   23  12  63 N13       30.09R WCI  11
DAUPHIN        MOSUNNY   21  14  73 VRB2      30.11F
ISLAND LAKE    FLURRIES   1  -6  71 N8G17     30.09R WCI -12
PILOT MOUND      N/A     19  16  86 NE6         N/A  WCI  11
THE PAS        MOSUNNY    5  -4  66 N6        30.16S WCI  -6
THOMPSON       MOSUNNY   -8 -15  71 VRB2      30.21R
WINNIPEG       CLOUDY    21  12  68 N15       30.10F WCI   8
LYNN LAKE      SUNNY     -6 -13  71 E3        30.19R
CHURCHILL      PTSUNNY   -8 -13  77 N8        30.31R WCI -23
GILLAM         MOSUNNY   -6 -15  65 N7        30.19R WCI -20
$$
                ***SASKATCHEWAN***

CITY           SKY/WX    TMP DP  RH WIND       PRES   REMARKS
ESTEVAN        PTSUNNY   23  18  80 N3        30.09S
KINDERSLEY     CLOUDY    25  18  74 W8        30.09S WCI  16
LLOYDMINSTER   FLURRIES  16  14  93 CALM      30.08S
PRINCE ALBERT  PTSUNNY   19  12  73 N10       30.10R WCI   8
REGINA         PTSUNNY   27  16  63 W9        30.09F WCI  17
YORKTON        CLOUDY    21  14  73 VRB2      30.07F
N. BATTLEFORD  CLOUDY    18  10  73 NW6       30.13S WCI   9
LA RONGE       MOSUNNY    7   0  72 NE3       30.14S
SASKATOON      MOSUNNY   23  14  68 NW12      30.13R WCI  12
SWIFT CURRENT  FLURRIES  21  16  79 W6        30.08S WCI  14
$$
NOTE: THESE ARE AUTOMATED STATIONS WITH LIMITED QUALITY CONTROL
      "FAIR" INDICATES FEW OR NO CLOUDS BELOW 12,000 FEET WITH NO
      SIGNIFICANT WEATHER AND/OR OBSTRUCTIONS TO VISIBILITY.
      SKY/WX - SKY CONDITION AND SIGNIFICANT WEATHER.
      TMP - AIR TEMPERATURE.    DP   - DEWPOINT TEMPERATURE.
      RH  - RELATIVE HUMIDITY.  PRES - PRESSURE.
      HX  - HEAT INDEX.         WCI  - WIND CHILL INDEX.
$




USA.gov is the U.S. government's official web portal to all federal, state and local government web resources and services.